Location: Wildlife_Club
(35.6000°N, 81.4330°W)
Time: 18:11:21
(UTC-04:00)

A-11 Canister half - Pass Details

Date: 29 June 2019
Orbit: 1514 x 1685 km, 47.2° (Epoch: 19 July)

Event Time Altitude Azimuth Distance (km) Brightness Sun altitude
Rises 16:59:22 0° 302° (WNW) 4,807 12.2 43.2°
Reaches altitude 10° 17:02:34 10° 299° (WNW) 3,796 11.9 42.5°
Maximum altitude 17:11:51 57° 224° (SW) 1,778 10.5 40.6°
Drops below altitude 10° 17:20:51 10° 149° (SSE) 3,677 10.8 38.8°
Sets 17:23:54 0° 145° (SE) 4,648 11.2 38.2°
